Location: Unnamed
(48.6007°N, 2.4808°E)
Time: 00:36:42
(UTC+02:00)

DOVE 4 - Visible Passes

Search period start: 31 May 2024 00:00
Search period end: 10 June 2024 00:00
Orbit: 582 x 778 km, 97.7° (Epoch: 30 May)

Date Brightness Start Highest point End Pass type
(mag) Time Alt. Az. Time Alt. Az. Time Alt. Az.
31 May ? 00:01:12 10° N 00:06:15 55° WNW 00:11:16 10° SSW visible
31 May ? 01:41:45 10° NW 01:42:30 10° NW 01:43:13 10° WNW visible
31 May ? 22:59:42 10° NNE 23:04:43 47° E 23:09:31 11° S visible
01 Jun ? 00:37:24 10° N 00:41:48 29° WNW 00:46:11 10° WSW visible
01 Jun ? 23:35:22 10° NNE 23:40:36 87° W 23:45:44 10° SSW visible
02 Jun ? 01:14:06 10° NNW 01:17:10 16° WNW 01:20:13 10° W visible
02 Jun ? 22:34:18 10° NNE 22:38:48 29° E 22:43:13 10° SSE visible
03 Jun ? 00:11:20 10° N 00:16:16 45° WNW 00:21:07 10° SW visible
03 Jun ? 23:09:40 10° NNE 23:14:48 58° E 23:19:48 10° S visible
04 Jun ? 00:47:38 10° N 00:51:44 24° WNW 00:55:47 10° WSW visible
04 Jun ? 23:45:25 10° N 23:50:36 72° WNW 23:55:40 10° SSW visible
05 Jun ? 01:24:36 10° NNW 01:27:01 13° NW 01:29:25 10° W visible
05 Jun ? 22:44:09 10° NNE 22:48:53 35° E 22:53:31 10° SSE visible
06 Jun ? 00:21:28 10° N 00:26:12 37° WNW 00:30:50 10° SW visible
06 Jun ? 23:19:38 10° NNE 23:24:50 71° ESE 23:29:52 10° S visible
07 Jun ? 00:57:54 10° NNW 01:01:36 20° WNW 01:05:15 10° WSW visible
07 Jun ? 23:55:27 10° N 00:00:33 59° WNW 00:05:30 10° SSW visible
08 Jun ? 01:35:26 10° NW 01:36:48 11° NW 01:38:10 10° WNW visible
08 Jun ? 22:54:00 10° NNE 22:58:55 43° E 23:03:40 10° SSE visible
09 Jun ? 00:31:35 10° N 00:36:04 31° WNW 00:40:27 10° SW visible
09 Jun ? 23:29:35 10° NNE 23:34:47 86° ESE 23:39:47 10° SSW visible
